Regional Weather Roundup
Issued by NWS

Home | Current Version | Previous Version | Graphics & Text | Print | Product List | Glossary On
Versions: 1 2 3 4 5 6 7 8 9 10 11 12 13 14 15 16 17 18 19 20 21 22 23 24 25 26 27 28
000
ASUS45 KCYS 230410
RWRWY

WYOMING REGIONAL WEATHER ROUNDUP
NATIONAL WEATHER SERVICE CHEYENNE WY
1000 PM MDT TUE AUG 22 2017

NOTE:  "FAIR" INDICATES FEW OR NO CLOUDS BELOW 12,000 FEET
WITH NO SIGNIFICANT WEATHER AND/OR OBSTRUCTIONS TO VISIBILITY.

WYZ001-230500-
YELLOWSTONE NATIONAL PARK

CITY           SKY/WX    TMP DP  RH WIND       PRES   REMARKS
LK YELLOWSTONE   N/A     47  32  56 CALM      30.40R
W YELLOWSTONE  NOT AVBL

$$
WYZ002>013-054>058-071-098>099-230500-
NORTHERN WYOMING

CITY           SKY/WX    TMP DP  RH WIND       PRES   REMARKS
JACKSON        FAIR      63  31  30 SE5       30.29R
CODY           FAIR      68  39  34 CALM      30.18R
GREYBULL       FAIR      74  31  20 NW6       30.06R
WORLAND        FAIR      67  33  28 E7        30.09R
SHERIDAN       FAIR      59  44  57 SW3       30.11R
BUFFALO        FAIR      67  34  29 W9        30.19R
GILLETTE       FAIR      57  33  40 S7        30.13S
HULETT         FAIR      68  41  37 E8        30.15S
NEWCASTLE      FAIR      72  45  37 E9        30.15S

$$
WYZ014>020-022>026-101>103-230500-
CENTRAL WYOMING

CITY           SKY/WX    TMP DP  RH WIND       PRES   REMARKS
BIG PINEY      FAIR      57  30  35 N13       30.33R
PINEDALE       FAIR      55  32  41 NW3       30.34R
DUBOIS         FAIR      61  23  23 W9        30.34R
LANDER           N/A    N/A N/A N/A MISG      30.18R
RIVERTON       FAIR      73  29  19 N9        30.18R
CASPER         FAIR      69  42  37 E8        30.17S
DOUGLAS        FAIR      66  51  58 SE7       30.17R

$$
WYZ021-027>030-104>119-230500-
SOUTHERN WYOMING

CITY           SKY/WX    TMP DP  RH WIND       PRES   REMARKS
EVANSTON       FAIR      63  40  42 SW10      30.36R
KEMMERER         N/A    N/A N/A N/A SW7       30.36R
FORT BRIDGER   FAIR      69  37  30 SW13G21   30.37S
ROCK SPRINGS   FAIR      72  33  24 SW20      30.30R
DIXON          FAIR      64  35  34 CALM      30.33R
RAWLINS        NOT AVBL
SARATOGA       FAIR      66  34  30 SW10      30.32S
LARAMIE        FAIR      60  52  74 SE10      30.32R
CHEYENNE       FAIR      64  53  67 SE10      30.25S
TORRINGTON     FAIR      68  52  56 E14       30.13R
PINE BLUFFS    FAIR      64  52  63 S9        30.20F

$$




USA.gov is the U.S. government's official web portal to all federal, state and local government web resources and services.